MMS 3

Last updated on Mon Sep 21 2026 00:02:53 GMT+0000 (Coordinated Universal Time)

1 40484U 15011C 26263.66668981 -.00001946 00000+0 00000+0 0 9996 2 40484 72.9038 347.7365 8258621 169.4042 318.7755 0.28195247 1391
UTC large
Height (km)
Speed (km/s)
/
Latitude / Longitude
Inclination (degrees)
Orbital Period (minutes)
Azimuth
Elevation
Range (km)
Doppler Factor

Next 0 passes for location: London (51.5072 / 0.1276)

No passes found over London.
MMS 3